Location: North Evanston
(42.0634°N, 87.6976°W)
Time: 14:28:11
(UTC+00:00)

Vanguard 3 - Pass Details

Date: 11 May 2026
Orbit: 507 x 3204 km, 33.3° (Epoch: 6 June)

Event Time Altitude Azimuth Distance (km) Brightness Sun altitude
Rises 21:52:19 0° 252° (WSW) 7,115 13.0 33.2°
Reaches altitude 10° 21:57:10 10° 249° (WSW) 6,123 12.9 32.3°
Maximum altitude 22:15:58 61° 176° (S) 3,001 10.4 28.8°
Drops below altitude 10° 22:29:00 10° 100° (E) 4,422 10.4 26.4°
Sets 22:31:54 0° 97° (E) 5,114 10.7 25.8°
